TimeCST,TemperatureF,Dew PointF,Humidity,Sea Level PressureIn,VisibilityMPH,Wind Direction,Wind SpeedMPH,Gust SpeedMPH,PrecipitationIn,Events,Conditions,WindDirDegrees,DateUTC
12:53 AM,28.9,26.1,89,30.23,5.0,ESE,9.2,-,N/A,,Clear,120,2013-02-09 06:53:00
1:53 AM,28.9,27.0,92,30.23,6.0,SE,11.5,-,N/A,,Clear,130,2013-02-09 07:53:00
2:20 AM,28.4,26.6,93,30.20,6.0,ESE,10.4,-,N/A,,Partly Cloudy,120,2013-02-09 08:20:00
2:53 AM,28.0,27.0,96,30.21,6.0,SE,12.7,-,N/A,,Partly Cloudy,130,2013-02-09 08:53:00
3:53 AM,28.9,27.0,92,30.20,6.0,SE,10.4,-,N/A,,Partly Cloudy,140,2013-02-09 09:53:00
4:53 AM,28.9,27.0,92,30.18,6.0,SE,10.4,-,N/A,,Clear,130,2013-02-09 10:53:00
5:53 AM,28.9,28.0,96,30.17,6.0,SE,9.2,-,N/A,,Clear,140,2013-02-09 11:53:00
6:53 AM,28.9,28.0,96,30.17,6.0,SE,10.4,-,N/A,,Clear,140,2013-02-09 12:53:00
7:51 AM,28.4,28.4,100,30.15,4.0,SSE,9.2,-,N/A,,Scattered Clouds,150,2013-02-09 13:51:00
7:53 AM,28.9,28.0,96,30.18,4.0,SSE,9.2,-,N/A,,Scattered Clouds,150,2013-02-09 13:53:00
7:57 AM,28.4,28.4,100,30.15,4.0,SSE,9.2,-,N/A,,Mostly Cloudy,150,2013-02-09 13:57:00
8:53 AM,30.0,28.9,96,30.17,4.0,SSE,11.5,-,N/A,,Mostly Cloudy,150,2013-02-09 14:53:00
9:53 AM,32.0,30.0,92,30.16,5.0,SSE,12.7,-,N/A,,Mostly Cloudy,150,2013-02-09 15:53:00
9:54 AM,32.0,30.2,93,30.13,5.0,SSE,12.7,-,N/A,,Mostly Cloudy,150,2013-02-09 15:54:00
9:56 AM,32.0,30.2,93,30.13,5.0,SSE,12.7,-,N/A,,Scattered Clouds,150,2013-02-09 15:56:00
10:53 AM,37.0,32.0,82,30.14,7.0,SSE,13.8,-,N/A,,Clear,150,2013-02-09 16:53:00
11:53 AM,39.0,32.0,76,30.10,8.0,SSE,11.5,-,N/A,,Clear,150,2013-02-09 17:53:00
12:53 PM,41.0,33.1,73,30.05,9.0,SE,10.4,-,N/A,,Clear,140,2013-02-09 18:53:00
1:53 PM,44.1,34.0,68,29.99,9.0,SSE,10.4,-,N/A,,Mostly Cloudy,150,2013-02-09 19:53:00
2:53 PM,46.0,33.1,61,29.98,10.0,SSE,13.8,-,N/A,,Clear,150,2013-02-09 20:53:00
3:53 PM,45.0,32.0,60,29.95,10.0,SE,11.5,-,N/A,,Mostly Cloudy,140,2013-02-09 21:53:00
4:53 PM,45.0,30.9,58,29.93,10.0,SSE,16.1,23.0,N/A,,Overcast,160,2013-02-09 22:53:00
5:53 PM,43.0,30.9,62,29.90,10.0,SSE,20.7,26.5,0.00,Rain,Light Rain,160,2013-02-09 23:53:00
6:53 PM,39.9,34.0,79,29.87,8.0,SSE,13.8,-,0.01,Rain,Light Rain,150,2013-02-10 00:53:00
7:53 PM,39.0,35.1,86,29.88,10.0,SSE,13.8,-,0.01,,Overcast,150,2013-02-10 01:53:00
8:53 PM,37.9,35.1,89,29.85,10.0,SSE,15.0,20.7,0.00,,Overcast,150,2013-02-10 02:53:00
9:53 PM,37.9,35.1,89,29.83,10.0,SSE,16.1,23.0,N/A,,Overcast,150,2013-02-10 03:53:00
10:53 PM,39.0,37.0,93,29.79,8.0,SSE,11.5,-,N/A,,Overcast,160,2013-02-10 04:53:00
11:06 PM,39.2,37.4,93,29.76,5.0,SSE,12.7,-,N/A,,Overcast,150,2013-02-10 05:06:00
11:33 PM,39.2,37.4,93,29.75,8.0,SSE,17.3,23.0,N/A,,Overcast,150,2013-02-10 05:33:00
11:53 PM,39.0,37.9,96,29.76,7.0,SSE,19.6,24.2,N/A,,Overcast,160,2013-02-10 05:53:00